INMARSAT 3-F5
1 25153U 98006B   03028.98434608  .00000136  00000-0  10000-3 0  8379
2 25153   0.4569 357.4680 0004493 322.9274 186.7353  1.00272183 18291
HOT BIRD 4
1 25237U 98013A   03013.80550721  .00000107  00000-0  10000-3 0  3250
2 25237   0.0242 116.4838 0007929 193.6371 105.7449  1.00276095 18185
NOAA 15
1 25338U 98030A   03030.84078469  .00000139  00000-0  78618-4 0  9901
2 25338  98.5503  53.4981 0010955  16.3052 343.8478 14.24235426245135
RESURS O1-N4
1 25394U 98043A   03030.87362754  .00000113  00000-0  68298-4 0  4363
2 25394  98.6360 109.1466 0001848 138.0197 222.1121 14.23870570236878
TMSAT
1 25396U 98043C   03029.92527147 -.00000043 +00000-0 +00000-0 0 08908
2 25396 098.6315 107.4178 0003234 165.8115 194.3160 14.23504206236738
TECHSAT 1B
1 25397U 98043D   03029.93946311 +.00000077 +00000-0 +53649-4 0 01245
2 25397 098.6263 106.3341 0000991 164.5017 195.6192 14.22955094236705
ASTRA 2A
1 25462U 98050A   03023.69277567  .00000000  00000-0  10000-3 0  5291
2 25462   0.0332  23.2945 0014243 166.1651 210.9165  1.00270553 16187
EUTELSAT W2
1 25491U 98056A   03029.00266876  .00000099  00000-0  00000+0 0  5711
2 25491   0.0278 124.8124 0003697 176.6640 203.3209  1.00274433 15848
HOT BIRD 5
1 25495U 98057A   03028.98801506  .00000150  00000-0  00000+0 0  4950
2 25495   0.0153 266.2596 0004156  42.4510 207.8526  1.00271667 15819
SEDSAT 1
1 25509U 98061B   03030.97888593  .00000885  00000-0  16641-3 0  7684
2 25509  31.4284 258.1524 0357377 140.5710 222.1499 14.27404613222650
PAN SAT
1 25520U 98064B   03031.16592056  .00002390  00000-0  11871-3 0  6343
2 25520  28.4597 346.4165 0005937 155.1805 204.9060 15.13781807234796
ISS (ZARYA)
1 25544U 98067A   03031.52818287 -.00018918  00000-0 -22365-3 0  6434
2 25544  51.6358 346.6704 0005582  97.5215  65.8846 15.59987627239683
ORSTED
1 25635U 99008B   03031.52221781  .00000777  00000-0  20384-3 0  8206
2 25635  96.4482  22.0760 0146443  26.8306 334.0365 14.44799995207330
SUNSAT
1 25636U 99008C   03030.23161074  .00000363  00000-0  10264-3 0  6601
2 25636  96.4516  19.7926 0150414  37.0876 324.0600 14.42932458207023
UOSAT 12
1 25693U 99021A   03031.46437944  .00000478  00000-0  88303-4 0  6637
2 25693  64.5598  66.1990 0018863 316.6941  43.2681 14.76365877203587
FENGYUN 1C
1 25730U 99025A   03030.87134926  .00000009  00000-0  28121-4 0  7555
2 25730  98.6357  55.9742 0015245  57.9134 302.3515 14.11731798191995
ASTRA 1H
1 25785U 99033A   03023.00000000  .00000123  00000-0  10000-3 0  3690
2 25785   0.0122 319.8851 0002995  65.1991 116.0174  1.00273184 13230
TERRA
1 25994U 99068A   03031.25277972  .00000492  00000-0  11914-3 0  6530
2 25994  98.2009 107.7558 0001055  82.7276 277.4070 14.57109127166002
JAWSAT
1 26061U 00004A   03030.85995129  .00000432  00000-0  16210-3 0  7533
2 26061 100.2106  84.4545 0034725 333.0484  26.8892 14.37801658157846
OPAL
1 26063U 00004C   03030.66627978  .00000108  00000-0  57654-4 0  7109
2 26063 100.2157  81.8149 0037230 340.5228  19.4519 14.35472807157671
ASUSAT
1 26065U 00004E   03030.55381284  .00000128  00000-0  64489-4 0  7214
2 26065 100.2156  81.8273 0037154 342.1314  17.8558 14.35499627157651
GOES 11
1 26352U 00022A   03030.43020083 -.00000046  00000-0  10000-3 0  9982
2 26352   0.0946 105.6366 0004374 178.7334 246.8541  1.00263071 10042
EUTELSAT W4
1 26369U 00028A   03027.82381367  .00000153  00000-0  00000+0 0  3471
2 26369   0.0483  43.9257 0006599 239.5452 175.8942  1.00275910  9833
FENGYUN 2B
1 26382U 00032A   03030.27861109 -.00000333  00000-0  00000+0 0  7780
2 26382   0.6140 287.1198 0000385 155.6588 250.4963  1.00257961  9519
EUTELSAT W1
1 26487U 00052A   03028.81965858  .00000063  00000-0  10000-3 0  3499
2 26487   0.0101 302.0094 0003628 296.2496 194.4288  1.00271090  8819
ASTRA 2B
1 26494U 00054A   03023.00000000  .00000154  00000-0  00000+0 0  2523
2 26494   0.0178 354.5658 0005000 302.8402 212.7100  1.00276704  8652
NOAA 16
1 26536U 00055A   03030.80241149 -.00000017  00000-0  15025-4 0  1883
2 26536  98.8994 339.2277 0010658   3.7132 356.4103 14.11892375121502
SAUDISAT 1A
1 26545U 00057A   03030.74773658  .00000937  00000-0  14330-3 0  4052
2 26545  64.5592  89.7685 0053341 241.7734 117.8021 14.78927899126432
UNISAT
1 26547U 00057C   03030.74367382  .00001804  00000-0  25168-3 0  4243
2 26547  64.5571  92.0868 0060528 244.1868 115.3005 14.79660001126403
TIUNGSAT 1
1 26548U 00057D   03029.65147668  .00001265  00000-0  17785-3 0  4084
2 26548  64.5579  86.2475 0046644 241.0722 118.5705 14.81198315126419
SAUDISAT 1B
1 26549U 00057E   03031.17631208  .00001130  00000-0  17227-3 0  6795
2 26549  64.5559  92.4710 0057680 242.0595 117.4641 14.77870241126428
AMSAT OSCAR 40
1 26609U 00072B   03028.74268608 -.00000074  00000-0  10000-3 0  3064
2 26609   8.0219  68.0001 7938228 137.9377 321.5232  1.25596898 10323
GOES 12
1 26871U 01031A   03030.44793568 -.00000138  00000-0  10000-3 0  7985
2 26871   0.3742 276.8869 0003283 355.1578 277.7020  1.00363359  5648
PCSAT
1 26931U 01043C   03031.46922056  .00000144  00000-0  89231-4 0  3901
2 26931  67.0485 302.2103 0005164 263.2068  96.8445 14.29105091 69763
SAPPHIRE
1 26932U 01043D   03030.88973643  .00000113  00000-0  76641-4 0  3845
2 26932  67.0569 303.4111 0005648 240.0637 119.9902 14.29287191 69702
ENVISAT
1 27386U 02009A   03031.45127488  .00000135  00000-0  66056-4 0  8965
2 27386  98.5465 100.2627 0000891  91.0326 269.0961 14.32249994 48150
IDEFIX/ARIANE 42P
1 27422U 02021B   03030.89383194  .00000183  00000-0  91755-4 0  2214
2 27422  98.6986 110.1799 0012241 201.0901 158.9775 14.27958957 38792
NOAA 17
1 27453U 02032A   03030.86596568  .00000225  00000-0  11888-3 0  2886
2 27453  98.7611 102.1739 0012573  53.2034 307.0293 14.23281356 31309
HOT BIRD 6
1 27499U 02038A   03013.80550721  .00000106  00000-0  10000-3 0   665
2 27499   0.0928  32.8693 0008090 290.3889  92.5421  1.00271722  1476
RUBIN 2
1 27605U 02058A   03030.88890430  .00000432  00000-0  90592-4 0   428
2 27605  64.5543 253.9631 0029543 117.3033 243.1084 14.71400027  6069
STS-107     
1 27647U 03003A   03031.54277778  .00028350  33478-8  48076-4 0   436
2 27647  39.0187 129.6545 0009745 137.1831  91.3435 16.01474313  2396
